Weather History for K1P1 - March, 2012

Change the Weather History Date:

Tuesday, March 20, 2012

  Actual Average (KLCI) Record (KLCI)
Temperature  
Mean Temperature 56 °F -  
Max Temperature 79 °F 44 °F 78 °F (2012)
Min Temperature 34 °F 21 °F 0 °F (1993)
Degree Days  
Heating Degree Days 8    
Growing Degree Days 6 (Base 50)    
Moisture  
Dew Point 44 °F    
Average Humidity 66    
Maximum Humidity 100    
Minimum Humidity 30    
Precipitation  
Precipitation 0.00 in - - ()
Sea Level Pressure  
Sea Level Pressure 30.24 in    
Wind  
Wind Speed 0 mph (West)    
Max Wind Speed 6 mph    
Max Gust Speed -    
Visibility 9 miles    
Events      
Averages and records for this station are not official NWS values.
T = Trace of Precipitation, MM = Missing Value Source: NWS Daily Summary

Daily Weather History Graph

Daily Weather History Graph

Search for Another Location

Airport or City:

Trip Planner

Search our weather history database for the weather conditions in past years. The results will help you decide how hot, cold, wet, or windy it might be!

Date:

Astronomy

Mar. 20, 2012 Rise Set
Actual Time 6:49 AM EDT 6:59 PM EDT
Civil Twilight 6:20 AM EDT 7:28 PM EDT
Nautical Twilight 5:47 AM EDT 8:02 PM EDT
Astronomical Twilight 5:12 AM EDT 8:36 PM EDT
Moon 5:32 AM EDT (3/20) 5:23 PM EDT (3/20)
Length of Visible Light 13h 07m
Length of Day
12h 10m
Waning Crescent, 4% of the Moon is Illuminated
Mar 20
Waning Crescent
Mar 22
New
Mar 30
First Quarter
Apr 6
Full
Apr 13
Last Quarter

Hourly Weather History & Observations

Time (EDT) Temp. Dew Point Humidity Pressure Visibility Wind Dir Wind Speed Gust Speed Precip Events Conditions
12:15 AM 43.0 °F 39.4 °F 87% 30.28 in 10.0 mi Calm Calm - N/A   Overcast
12:35 AM 41.4 °F 39.0 °F 91% 30.28 in 10.0 mi Calm Calm - N/A   Mostly Cloudy
2:15 AM 38.5 °F 37.4 °F 96% 30.28 in 5.0 mi Calm Calm - N/A   Clear
5:15 AM 36.1 °F 36.0 °F 99% 30.28 in 4.0 mi Calm Calm - N/A   Scattered Clouds
5:55 AM 35.1 °F 35.1 °F 100% 30.29 in 5.0 mi Calm Calm - N/A   Overcast
6:15 AM 36.0 °F 36.0 °F 100% 30.29 in 7.0 mi Calm Calm - N/A   Overcast
6:35 AM 36.1 °F 36.0 °F 99% 30.29 in 7.0 mi Calm Calm - N/A   Overcast
6:55 AM 35.4 °F 35.1 °F 99% 30.29 in 4.0 mi Calm Calm - N/A   Mostly Cloudy
7:15 AM 34.5 °F 34.5 °F 100% 30.30 in 4.0 mi Calm Calm - N/A   Mostly Cloudy
7:35 AM 35.6 °F 35.6 °F 100% 30.30 in 4.0 mi Calm Calm - N/A   Mostly Cloudy
7:55 AM 36.3 °F 36.3 °F 100% 30.30 in 5.0 mi Calm Calm - N/A   Scattered Clouds
8:15 AM 37.8 °F 37.6 °F 99% 30.30 in 10.0 mi Calm Calm - N/A   Clear
8:35 AM 40.3 °F 39.4 °F 97% 30.30 in 7.0 mi Calm Calm - N/A   Clear
8:55 AM 42.6 °F 40.1 °F 91% 30.30 in 10.0 mi Calm Calm - N/A   Clear
9:15 AM 44.8 °F 40.6 °F 85% 30.30 in 10.0 mi Calm Calm - N/A   Clear
9:35 AM 46.9 °F 41.4 °F 81% 30.30 in 10.0 mi Calm Calm - N/A   Clear
10:15 AM 51.8 °F 42.8 °F 71% 30.29 in 10.0 mi Calm Calm - N/A   Clear
10:35 AM 54.7 °F 43.3 °F 66% 30.29 in 10.0 mi Calm Calm - N/A   Clear
10:55 AM 56.3 °F 44.2 °F 64% 30.29 in 10.0 mi Calm Calm - N/A   Clear
11:15 AM 58.6 °F 44.2 °F 59% 30.28 in 10.0 mi Calm Calm - N/A   Clear
11:35 AM 62.4 °F 45.1 °F 53% 30.28 in 10.0 mi Calm Calm - N/A   Clear
11:55 AM 64.6 °F 45.7 °F 50% 30.27 in 10.0 mi Calm Calm - N/A   Clear
12:15 PM 67.1 °F 46.4 °F 47% 30.26 in 10.0 mi Calm Calm - N/A   Clear
12:35 PM 70.9 °F 47.1 °F 43% 30.25 in 10.0 mi Calm Calm - N/A   Clear
12:55 PM 73.6 °F 47.3 °F 39% 30.24 in 10.0 mi Calm Calm - N/A   Clear
1:35 PM 75.7 °F 47.5 °F 37% 30.23 in 10.0 mi Calm Calm - N/A   Clear
1:55 PM 77.4 °F 47.5 °F 35% 30.22 in 10.0 mi Calm Calm - N/A   Clear
2:15 PM 77.9 °F 48.6 °F 36% 30.21 in 10.0 mi West 4.6 mph - N/A   Clear
2:35 PM 79.0 °F 48.2 °F 34% 30.20 in 10.0 mi Calm Calm - N/A   Scattered Clouds
2:55 PM 78.8 °F 48.0 °F 34% 30.19 in 10.0 mi West 4.6 mph - N/A   Scattered Clouds
3:15 PM 79.2 °F 46.6 °F 32% 30.19 in 10.0 mi Calm Calm - N/A   Clear
3:35 PM 79.0 °F 47.3 °F 33% 30.18 in 10.0 mi West 4.6 mph - N/A   Clear
3:55 PM 78.4 °F 46.6 °F 32% 30.18 in 10.0 mi Calm Calm - N/A   Clear
4:15 PM 78.8 °F 47.1 °F 33% 30.17 in 10.0 mi NW 4.6 mph - N/A   Clear
4:35 PM 79.3 °F 45.5 °F 30% 30.17 in 10.0 mi NW 3.5 mph - N/A   Clear
4:55 PM 79.2 °F 47.3 °F 33% 30.16 in 10.0 mi West 3.5 mph - N/A   Scattered Clouds
5:15 PM 79.0 °F 46.0 °F 31% 30.16 in 10.0 mi WNW 5.8 mph - N/A   Clear
5:35 PM 77.7 °F 46.9 °F 34% 30.16 in 10.0 mi West 4.6 mph - N/A   Clear
5:55 PM 78.4 °F 46.0 °F 32% 30.16 in 10.0 mi WSW 3.5 mph - N/A   Clear
6:15 PM 75.2 °F 48.4 °F 39% 30.17 in 10.0 mi Calm Calm - N/A   Clear
6:35 PM 70.2 °F 51.8 °F 52% 30.17 in 10.0 mi Calm Calm - N/A   Clear
6:55 PM 66.9 °F 51.3 °F 57% 30.17 in 10.0 mi Calm Calm - N/A   Clear
7:15 PM 63.9 °F 51.1 °F 63% 30.17 in 10.0 mi Calm Calm - N/A   Clear
7:35 PM 60.6 °F 51.4 °F 72% 30.17 in 10.0 mi Calm Calm - N/A   Clear
7:55 PM 59.0 °F 50.2 °F 73% 30.18 in 10.0 mi Calm Calm - N/A   Clear
8:15 PM 56.7 °F 50.4 °F 79% 30.20 in 10.0 mi Calm Calm - N/A   Clear
8:35 PM 55.8 °F 49.1 °F 78% 30.21 in 10.0 mi Calm Calm - N/A   Clear
8:55 PM 54.3 °F 49.5 °F 84% 30.22 in 10.0 mi Calm Calm - N/A   Clear
9:15 PM 52.7 °F 48.0 °F 84% 30.23 in 10.0 mi Calm Calm - N/A   Clear
9:55 PM 50.0 °F 46.4 °F 87% 30.24 in 10.0 mi Calm Calm - N/A   Clear
10:15 PM 49.1 °F 46.2 °F 90% 30.25 in 10.0 mi Calm Calm - N/A   Clear
10:55 PM 47.1 °F 44.6 °F 91% 30.26 in 10.0 mi Calm Calm - N/A   Clear
11:15 PM 47.3 °F 45.5 °F 93% 30.26 in 10.0 mi Calm Calm - N/A   Clear
11:35 PM 46.4 °F 45.0 °F 95% 30.26 in 5.0 mi Calm Calm - N/A   Clear
11:55 PM 44.2 °F 43.5 °F 97% 30.27 in 7.0 mi Calm Calm - N/A   Clear